Regional Weather Roundup
Issued by NWS Sioux Falls, SD

Home | Current Version | Previous Version | Graphics & Text | Print | Product List | Glossary On
Versions: 1 2 3 4 5 6 7 8 9 10 11 12 13 14 15 16 17 18 19 20 21 22 23 24 25 26 27 28 29 30 31 32 33 34 35 36 37 38 39 40 41 42 43 44 45 46 47 48 49 50
000
ASUS43 KFSD 270210
RWRFSD

WEATHER ROUNDUP FOR SE SOUTH DAKOTA/SW MINNESOTA/NW IOWA
NATIONAL WEATHER SERVICE SIOUX FALLS SD
800 PM CST THU FEB 26 2015

NOTE: "FAIR" INDICATES FEW OR NO CLOUDS BELOW 12,000 FEET WITH NO
SIGNIFICANT WEATHER AND OR OBSTRUCTIONS TO VISIBILITY.


SDZ038>040-050-052>070-270300-
SOUTHEAST SOUTH DAKOTA

CITY           SKY/WX    TMP DP  RH WIND       PRES   REMARKS
CHAMBERLAIN    CLEAR      3  -8  61 N5        30.53S WCI  -7
HURON          CLEAR    -10 -15  78 NW7       30.56S WCI -25
MADISON        FAIR      -8  -9  92 NW8       30.49S WCI -23
MITCHELL       CLEAR      0  -6  76 W6        30.58R WCI -12
SIOUX FALLS    CLEAR     -2  -8  76 NW8       30.51S WCI -17
WINNER         FAIR       3  -9  57 NE7       30.50R WCI  -9
YANKTON        CLEAR      3  -6  66 N8        30.56R WCI -10
$$

MNZ071-072-080-081-089-090-097-098-270300-
SOUTHWEST MINNESOTA

CITY           SKY/WX    TMP DP  RH WIND       PRES   REMARKS
FAIRMONT       CLEAR     -2 -11  65 NW12      30.47S WCI -20
JACKSON        CLEAR     -4  -9  77 NW8       30.48S WCI -19
LUVERNE        CLEAR      0  -8  71 N5        30.51S WCI -10
MARSHALL       CLEAR     -8 -13  77 NW7       30.53R WCI -22
MONTEVIDEO     CLEAR     -2  -8  78 NW6       30.54S WCI -14
PIPESTONE      CLEAR     -2  -8  78 NW8       30.47S WCI -17
REDWOOD FALLS  CLEAR     -2  -9  72 W12       30.51S WCI -20
TRACY          CLEAR     -3  -8  78 NW8       30.51R WCI -18
WINDOM         CLEAR     -6 -11  77 W8        30.49R WCI -21
WORTHINGTON    CLEAR     21 -17  18 NW8       30.49S WCI  12
$$

IAZ001>003-012>014-020>022-031-032-NEZ013-014-SDZ071-270300-
NORTHWEST IOWA

CITY           SKY/WX    TMP DP  RH WIND       PRES   REMARKS
CHEROKEE       CLEAR     -1  -7  76 NW3       30.53R
DENISON        CLEAR     -2  -9  71 CALM      30.51S
ESTHERVILLE    CLEAR     -9 -13  83 NW8       30.49R WCI -25
LE MARS        CLEAR      0  -6  78 N6        30.55R WCI -12
ORANGE CITY    CLEAR      1  -6  71 N6        30.50S WCI -10
SHELDON        CLEAR     -4 -11  71 NW8       30.50R WCI -19
SIOUX CITY     CLEAR      5  -4  66 N10       30.56R WCI -10
SPENCER        CLEAR     -6 -12  75 NW6       30.50R WCI -19
STORM LAKE     CLEAR     -2  -8  78 NW9       30.49S WCI -18
$$

ABBREVIATIONS USED IN REMARKS
   TC - TEMPERATURE IN CELSIUS
  WCI - WIND CHILL INDEX
   HX - HEAT INDEX
  VSB - VISIBILITY



USA.gov is the U.S. government's official web portal to all federal, state and local government web resources and services.